sat.trackr.live / text

‹ back to catalog

STARLINK-31123

NORAD 58775 · 2024-011L

PAYLOAD ACTIVE UNKNOWN

§ Identity

Operator
Country
US
Launch date
2024-01-14
Launch site
AFWTR
Launch vehicle
Mass (kg)
RCS (m²)

Purposes: comms

External: N2YO · Heavens-Above · Gunter

§ Orbital elements

Epoch: 2026-05-25T01:11:45.062304Z

Period
94.11 min
Inclination
53.1616°
Eccentricity
0.0001283
Mean motion
15.30186207 rev/d
Perigee alt
474.4 km
Apogee alt
476.1 km
Semi-major
6,853.4 km
B*
8.9185e-5
RAAN
18.8255°
Arg perigee
92.4291°
Mean anomaly
267.6857°
Rev number
13,196

§ Raw data

STARLINK-311231 58775U 24011L   26145.04982711  .00002282  00000+0  89185-4 0  99982 58775  53.1616  18.8255 0001283  92.4291 267.6857 15.30186207131960

JSON: /api/v1/satellites/58775 · /tle

For live sub-satellite position, see the globe view (requires WebGL).

§ Visibility from observer

Set your observer location to see the next 7 days of passes ≥ 10°. The values pass through the URL so the page stays shareable.

No JS? Fill the form by hand. The geolocation button needs JavaScript.